#timestamp,LO_Frequency,Hit,StdDev 
1707789615.7,286046999.6,P
1707789635.5,286046998.7,P
1707789655.4,286046999.4,N
1707789675.2,286046998.9,Y
1707789695.0,286046998.5,P
1707789695.9,286046998.5,P
1707789715.8,286046998.5,P
1707789735.6,286047002.3,Y
1707789755.5,286047002.3,P
1707789775.3,286047001.8,N
1707789795.1,286047002.3,N
1707789815.9,286047000.9,N
1707789835.7,286047000.9,N
1707789855.5,286046998.6,N
1707789875.4,286047002.6,N
1707789895.2,286047001.6,N
1707789915.1,286047002.2,N
1707789916.0,286047002.2,N
1707789935.8,286047002.0,N
1707789955.6,286047001.3,N
1707789975.5,286047000.6,N
1707789995.3,286046999.8,N
1707790015.1,286047000.3,N
1707790035.9,286047002.4,N
1707790055.7,286046998.2,N
1707790075.6,286047000.8,N
1707790095.4,286046999.7,N
1707790115.2,286047001.2,N
1707790135.1,286047000.8,N
1707790136.0,286047000.8,N
1707790155.8,286047002.4,N
1707790175.6,286047002.3,N
1707790195.5,286047000.3,N
1707790215.3,286047000.2,N
1707790235.2,286046998.5,N
1707790255.9,286046999.9,N
1707790275.7,286047000.0,N
1707790295.6,286047001.6,N
1707790315.4,286047002.8,N
1707790335.2,286047000.4,N
1707790355.1,286047000.3,N
1707790356.0,286047000.3,N
1707790375.8,286047000.4,N
1707790395.7,286046999.0,N
1707790415.5,286046999.0,N
1707790435.3,286047000.7,N
1707790455.2,286047000.4,N
1707790475.0,286046999.2,N
1707790475.9,286046999.2,N
1707790495.8,286046998.2,N
1707790515.6,286047000.1,N
1707790535.4,286047000.7,N
1707790555.3,286047000.7,N
1707790575.1,286046998.8,N
1707790595.8,286046996.5,Y
1707790615.7,286047000.2,P
1707790635.5,286047001.7,P
1707790655.4,286047000.3,N
1707790675.2,286047001.3,N
1707790695.0,286047001.0,N
1707790695.9,286047001.0,N
1707790715.8,286047002.5,Y
1707790735.6,286047001.0,P
1707790755.5,286046998.1,P
1707790775.3,286047000.0,N
1707790795.1,286047000.6,N
1707790815.9,286047000.5,N
1707790835.7,286047000.3,N
1707790855.5,286046998.7,N
1707790875.4,286047001.9,N
1707790895.2,286047003.0,N
1707790915.0,286047001.8,N
1707790916.0,286047001.8,N
1707790935.8,286047002.0,N
1707790955.6,286047004.0,Y
1707790975.5,286047002.4,P
1707790995.3,286047001.0,N
1707791015.1,286046999.0,N
1707791035.9,286046997.1,N
1707791055.7,286046999.6,N
1707791075.6,286046999.8,N
1707791095.4,286046994.1,Y
1707791115.2,286046998.5,P
1707791135.1,286046994.1,P
1707791136.0,286046994.1,N
1707791155.8,286046994.6,N
1707791175.6,286046994.4,N
1707791195.5,286046994.6,N
1707791215.3,286046991.7,Y
1707791235.2,286046997.9,P
1707791255.9,286046999.2,N
1707791275.7,286046999.0,N
1707791295.6,286046999.2,N
1707791315.4,286046998.8,N
1707791335.3,286046996.6,N
1707791355.1,286046997.8,N
1707791356.0,286046997.8,N
1707791375.8,286046997.5,N
1707791395.7,286046997.6,N
1707791415.5,286046997.8,N
1707791435.3,286046996.7,Y
1707791455.2,286046998.2,P
1707791475.0,286046998.6,P
1707791475.9,286046998.6,P
1707791495.8,286047000.7,N
1707791515.6,286046998.5,N
1707791535.4,286046998.5,N
1707791555.3,286047000.9,N
1707791575.1,286047000.6,N
1707791595.8,286047000.1,N
1707791615.7,286047000.6,N
1707791635.5,286046999.2,N
1707791655.4,286046999.5,N
1707791675.2,286047000.7,N
1707791695.0,286047000.5,N
1707791695.9,286047000.5,N
1707791715.8,286047002.6,N
1707791735.6,286047000.6,N
1707791755.4,286046999.8,N
1707791775.3,286047002.4,N
1707791795.1,286047000.6,N
1707791815.9,286047000.5,N
1707791835.7,286047000.5,N
1707791855.5,286046999.6,N
1707791875.4,286047000.8,N
1707791895.2,286047000.7,N
1707791915.0,286047000.8,N
1707791915.9,286047000.8,N
1707791935.8,286047000.3,N
1707791955.6,286047000.5,N
1707791975.5,286047000.3,N
1707791995.3,286046999.9,N
1707792015.1,286047002.2,N
1707792035.9,286047002.1,N
1707792055.7,286047002.1,N
1707792075.5,286046999.9,N
1707792095.4,286046999.7,N
1707792115.2,286047000.6,N
1707792135.1,286046998.2,N
1707792136.0,286046998.2,N
1707792155.8,286047000.5,N
1707792175.6,286047002.0,N
1707792195.5,286047000.1,N
1707792215.3,286047000.4,N
1707792235.1,286046998.6,N
1707792255.9,286046998.5,N
1707792275.7,286046999.4,N
1707792295.6,286046998.9,N
1707792315.4,286046999.3,N
1707792335.2,286046998.2,N
1707792355.1,286046999.7,N
1707792356.0,286046999.7,N
1707792375.8,286047002.1,N
1707792395.7,286047002.1,N
1707792415.5,286047002.0,N
1707792435.3,286047000.7,N
1707792455.2,286047000.4,N
1707792475.0,286047001.0,N
1707792475.9,286047001.0,N
1707792495.7,286047000.5,N
1707792515.6,286047000.4,N
1707792535.4,286046999.9,N
1707792555.3,286047000.9,N
1707792575.1,286047000.3,N
1707792576.0,286047000.3,N
1707792595.8,286047000.6,N
1707792615.7,286047000.4,N
1707792635.5,286047000.8,N
1707792655.4,286047000.6,N
1707792675.2,286047002.4,N
1707792695.0,286046999.7,N
1707792695.9,286046999.7,N
1707792715.8,286047002.5,N
1707792735.6,286047002.6,N
1707792755.4,286047002.2,N
1707792775.3,286047002.1,N
1707792795.1,286047002.4,N
1707792815.9,286047000.3,N
1707792835.7,286047002.8,N
1707792855.5,286047000.2,N
1707792875.4,286046999.9,N
1707792895.2,286047000.6,N
1707792915.0,286047000.2,N
1707792916.0,286047000.2,N
1707792935.8,286047000.1,N
1707792955.6,286047001.0,N
1707792975.5,286047000.9,N
1707792995.3,286046998.4,N
1707793015.1,286046998.5,N
1707793035.9,286047000.5,N
1707793055.7,286047001.0,N
1707793075.6,286047001.6,N
1707793095.4,286047001.9,N
1707793115.2,286046999.9,N
1707793135.1,286047002.1,N
1707793136.0,286047002.1,N
1707793155.8,286047002.5,N
1707793175.6,286047000.6,N
1707793195.5,286047000.2,N
